Weather reports worldwide

Advertisment
Messina, Italy (16420): temperature & dewpoint: 15.09.2018 01:00:00 - 21.09.2018 01:00:00 (CEST)Messina, Italy (16420): wind speed: 15.09.2018 01:00:00 - 21.09.2018 01:00:00 (CEST)Messina, Italy (16420): wind direction: 15.09.2018 01:00:00 - 21.09.2018 01:00:00 (CEST)Messina, Italy (16420): reduced air pressure: 15.09.2018 01:00:00 - 21.09.2018 01:00:00 (CEST)Messina, Italy (16420): visibility: 15.09.2018 01:00:00 - 21.09.2018 01:00:00 (CEST)Messina, Italy (16420): sunshine duration: 15.09.2018 01:00:00 - 21.09.2018 01:00:00 (CEST)
Date & Time tt [°C] td [°C] ff [km/h] ff [kn] dd ppp [hPa] vv [km] sd [min]
21.09.2018 01:00:00 23,0 20,3 0 0 N 1015,6 10 -
21.09.2018 00:00:00 22,8 20,1 0 0 N 1015,7 12 -
20.09.2018 23:00:00 23,0 20,3 0 0 N 1015,6 12 -
20.09.2018 22:00:00 23,0 19,4 0 0 N 1015,6 12 -
20.09.2018 21:00:00 23,0 20,0 4 2 SE 1015,4 12 -
20.09.2018 20:00:00 22,8 20,3 4 2 S 1015,4 12 -
20.09.2018 19:00:00 22,6 20,9 8 4 SW 1015,5 12 -
20.09.2018 18:00:00 24,2 20,9 11 6 SSW 1015,4 10 0
20.09.2018 17:00:00 24,0 19,9 8 4 S 1016,0 15 0
20.09.2018 16:00:00 23,4 21,9 4 2 SSW 1016,3 9 -
20.09.2018 15:00:00 24,2 19,9 4 2 N 1016,3 12 6
20.09.2018 14:00:00 23,6 19,3 5 3 ENE 1016,9 10 0
20.09.2018 13:00:00 27,4 20,2 16 9 S 1016,2 10 48
20.09.2018 12:00:00 27,4 22,1 18 10 SW 1016,7 10 60
20.09.2018 11:00:00 27,6 21,6 16 9 SSW 1016,8 18 60
20.09.2018 10:00:00 26,8 22,2 16 9 S 1016,6 18 42
20.09.2018 09:00:00 25,8 21,7 9 5 SW 1016,5 18 0
20.09.2018 08:00:00 24,6 20,3 5 3 SW 1016,5 20 0
20.09.2018 07:00:00 24,2 18,8 5 3 WSW 1016,4 20 -
20.09.2018 06:00:00 24,0 19,1 0 0 N 1016,4 16 -
20.09.2018 05:00:00 24,2 19,9 2 1 W 1016,5 16 -
20.09.2018 04:00:00 24,4 20,1 0 0 N 1016,7 20 -
20.09.2018 03:00:00 24,8 19,6 0 0 N 1017,5 16 -
20.09.2018 02:00:00 25,0 18,9 0 0 N 1017,5 16 -
20.09.2018 01:00:00 25,2 17,9 0 0 N 1017,5 16 -
20.09.2018 00:00:00 25,4 18,1 0 0 N 1017,5 16 -
19.09.2018 23:00:00 25,6 17,5 9 5 NNW 1018,0 10 -
19.09.2018 22:00:00 25,4 17,9 5 3 N 1018,0 12 -
19.09.2018 21:00:00 25,0 21,1 8 4 NW 1017,2 12 -
19.09.2018 20:00:00 25,2 22,1 0 0 N 1017,2 12 -
19.09.2018 19:00:00 26,0 22,3 5 3 SSW 1017,3 12 0
19.09.2018 18:00:00 26,2 20,8 11 6 SSW 1017,3 12 0
19.09.2018 17:00:00 26,8 22,4 11 6 SSW 1017,3 12 0
19.09.2018 16:00:00 26,4 21,8 16 9 SSW 1017,4 12 0
19.09.2018 15:00:00 26,8 22,4 13 7 SSW 1017,4 12 6
19.09.2018 14:00:00 28,8 19,7 21 11 WSW 1017,4 16 60
19.09.2018 13:00:00 28,2 19,7 18 10 SSW 1018,1 16 60
19.09.2018 12:00:00 28,0 19,5 18 10 SSW 1018,3 16 60
19.09.2018 11:00:00 27,2 21,3 11 6 SW 1018,3 20 60
19.09.2018 10:00:00 26,2 22,3 8 4 ESE 1018,3 20 60
19.09.2018 09:00:00 25,6 21,5 5 3 NE 1018,3 16 60
19.09.2018 08:00:00 23,6 20,7 8 4 N 1018,3 16 0
19.09.2018 07:00:00 23,6 20,7 4 2 N 1018,4 16 -
19.09.2018 06:00:00 23,6 20,3 4 2 NNE 1018,4 12 -
19.09.2018 05:00:00 23,8 20,3 5 3 N 1018,6 10 -
19.09.2018 04:00:00 23,4 19,1 8 4 NNW 1018,6 12 -
19.09.2018 03:00:00 23,4 18,7 5 3 NNW 1019,0 12 -
19.09.2018 02:00:00 23,6 21,3 0 0 N 1019,4 12 -
19.09.2018 01:00:00 24,0 21,9 0 0 N 1019,3 12 -
19.09.2018 00:00:00 24,2 22,1 0 0 N 1019,3 12 -
18.09.2018 23:00:00 24,2 21,9 2 1 NNW 1019,3 12 -
18.09.2018 22:00:00 24,6 21,9 4 2 N 1019,3 12 -
18.09.2018 21:00:00 24,8 22,1 4 2 NNW 1019,1 12 -
18.09.2018 20:00:00 25,0 22,3 2 1 ENE 1019,0 16 -
18.09.2018 19:00:00 25,4 22,3 8 4 ENE 1019,0 16 0
18.09.2018 18:00:00 26,4 22,5 9 5 ENE 1018,7 16 54
18.09.2018 17:00:00 27,4 20,2 11 6 ENE 1018,7 10 24
18.09.2018 16:00:00 28,6 19,5 8 4 SSW 1018,9 20 60
18.09.2018 15:00:00 27,8 21,3 8 4 SSW 1019,2 20 48
18.09.2018 14:00:00 27,4 20,5 11 6 S 1019,5 20 0
18.09.2018 13:00:00 27,4 20,0 8 4 ENE 1019,7 20 42
18.09.2018 12:00:00 27,6 21,6 8 4 ENE 1019,8 20 60
18.09.2018 11:00:00 26,4 22,0 13 7 ENE 1019,8 20 60
18.09.2018 10:00:00 26,4 22,2 8 4 E 1019,7 20 60
18.09.2018 09:00:00 25,4 21,7 2 1 NE 1019,4 20 36
18.09.2018 08:00:00 24,0 21,5 0 0 N 1019,4 15 0
18.09.2018 07:00:00 23,4 21,1 5 3 N 1019,3 15 0
18.09.2018 06:00:00 23,2 21,1 5 3 N 1019,4 15 -
18.09.2018 05:00:00 23,0 20,9 5 3 NNW 1019,4 15 -
18.09.2018 04:00:00 23,0 20,7 0 0 N 1018,9 15 -
18.09.2018 03:00:00 23,0 20,9 0 0 N 1019,3 15 -
18.09.2018 02:00:00 22,8 20,7 0 0 N 1019,3 15 -
18.09.2018 01:00:00 23,8 21,7 2 1 NNW 1019,6 15 -
18.09.2018 00:00:00 24,0 20,7 4 2 NW 1019,7 15 -
17.09.2018 23:00:00 24,8 21,9 0 0 N 1019,9 15 -
17.09.2018 22:00:00 24,8 22,3 8 4 NW 1019,8 15 -
17.09.2018 21:00:00 25,0 21,9 4 2 NW 1019,4 15 -
17.09.2018 20:00:00 26,0 22,5 8 4 SSW 1019,3 16 -
17.09.2018 19:00:00 27,0 21,5 5 3 SSW 1019,2 20 48
17.09.2018 18:00:00 28,0 22,7 11 6 SW 1019,5 20 60
17.09.2018 17:00:00 28,6 21,1 16 9 SSW 1019,9 20 60
17.09.2018 16:00:00 29,0 20,5 13 7 SSW 1020,1 20 60
17.09.2018 15:00:00 28,8 19,2 18 10 SSW 1020,5 20 60
17.09.2018 14:00:00 28,0 21,1 9 5 ESE 1021,0 20 60
17.09.2018 13:00:00 27,8 22,1 16 9 ENE 1021,3 20 60
17.09.2018 12:00:00 28,2 21,5 13 7 ENE 1021,2 20 60
17.09.2018 11:00:00 27,6 20,7 11 6 NE 1021,1 20 60
17.09.2018 10:00:00 26,8 19,7 9 5 NE 1020,9 18 60
17.09.2018 09:00:00 25,0 21,3 9 5 NNW 1020,6 18 60
17.09.2018 08:00:00 24,0 21,1 8 4 N 1020,4 16 24
17.09.2018 07:00:00 23,0 20,9 11 6 NNW 1020,4 16 0
17.09.2018 06:00:00 23,0 20,5 5 3 N 1020,4 14 -
17.09.2018 05:00:00 23,0 20,3 5 3 N 1020,6 10 -
17.09.2018 04:00:00 23,4 20,3 4 2 NNW 1020,5 14 -
17.09.2018 03:00:00 23,6 20,7 5 3 N 1020,5 14 -
17.09.2018 02:00:00 23,8 21,1 4 2 N 1021,2 14 -
17.09.2018 01:00:00 24,0 21,5 5 3 NNE 1021,3 14 -
17.09.2018 00:00:00 24,0 21,7 0 0 N 1021,3 14 -
16.09.2018 23:00:00 24,2 20,5 5 3 NNE 1021,3 14 -
16.09.2018 22:00:00 24,2 21,5 9 5 N 1021,4 14 -
16.09.2018 21:00:00 24,4 21,5 5 3 WNW 1021,4 14 -
16.09.2018 20:00:00 25,0 21,9 5 3 N 1021,0 20 -
16.09.2018 19:00:00 - 21,2 13 7 NE 1020,5 20 18
16.09.2018 18:00:00 28,6 21,4 8 4 N 1020,5 20 60
16.09.2018 17:00:00 29,4 21,9 8 4 NNE 1020,5 20 60
16.09.2018 16:00:00 28,4 21,2 15 8 NE 1020,8 20 60
16.09.2018 15:00:00 29,2 21,7 21 11 ENE 1020,8 20 60
16.09.2018 14:00:00 - - - - - - - -
16.09.2018 13:00:00 - 19,4 22 12 NE 1021,4 10 60
16.09.2018 12:00:00 27,2 20,5 11 6 NNW 1021,9 10 60
16.09.2018 11:00:00 26,4 20,5 11 6 NNW 1021,7 10 60
16.09.2018 10:00:00 26,0 20,3 13 7 NNW 1021,5 10 54
16.09.2018 09:00:00 24,2 19,9 13 7 N 1020,9 10 60
16.09.2018 08:00:00 23,8 20,5 11 6 NW 1020,7 10 12
16.09.2018 07:00:00 23,4 20,9 9 5 NW 1020,3 10 -
16.09.2018 06:00:00 23,4 20,7 11 6 NW 1020,3 10 -
16.09.2018 05:00:00 - - - - - - - -
16.09.2018 04:00:00 23,6 20,7 8 4 NW 1020,7 10 -
16.09.2018 03:00:00 24,0 20,9 5 3 NNW 1020,8 10 -
16.09.2018 02:00:00 - - - - - - - -
16.09.2018 01:00:00 - - - - - - - -
16.09.2018 00:00:00 24,0 21,3 5 3 N 1020,7 10 -
15.09.2018 23:00:00 24,0 21,3 5 3 NNW 1020,4 10 -
15.09.2018 22:00:00 - - - - - - - -
15.09.2018 21:00:00 24,8 21,5 4 2 N 1020,4 10 -
15.09.2018 20:00:00 25,0 20,9 8 4 N 1019,4 10 -
15.09.2018 19:00:00 25,6 20,8 9 5 N 1019,4 20 24
15.09.2018 18:00:00 27,0 19,9 11 6 NNE 1019,2 20 60
15.09.2018 17:00:00 28,4 19,4 9 5 NNE 1019,0 20 60
15.09.2018 16:00:00 28,0 19,0 11 6 NNW 1019,1 20 60
15.09.2018 15:00:00 28,0 18,1 13 7 N 1019,2 20 60
15.09.2018 14:00:00 27,8 18,2 9 5 NNW 1019,3 20 60
15.09.2018 13:00:00 27,8 18,8 11 6 N 1019,3 20 60
15.09.2018 12:00:00 27,0 18,0 9 5 NNW 1019,3 20 60
15.09.2018 11:00:00 26,2 18,9 11 6 N 1019,1 20 60
15.09.2018 10:00:00 25,8 19,9 9 5 NNW 1018,4 20 60
15.09.2018 09:00:00 24,8 20,3 9 5 N 1018,3 20 60
15.09.2018 08:00:00 23,8 20,1 8 4 NW 1017,8 20 12
15.09.2018 07:00:00 23,0 19,8 8 4 NNW 1017,3 20 -
15.09.2018 06:00:00 23,0 19,6 9 5 NNW 1017,0 20 -
15.09.2018 05:00:00 23,2 19,5 8 4 NW 1017,0 20 -
15.09.2018 04:00:00 23,2 19,5 9 5 NNW 1017,0 20 -
15.09.2018 03:00:00 23,2 19,8 5 3 N 1017,0 20 -
15.09.2018 02:00:00 23,2 19,8 8 4 NNW 1016,8 20 -
15.09.2018 01:00:00 23,4 19,8 5 3 NNW 1016,5 20 -

tt = temperature
td = dewpoint
ff = wind speed
dd = wind direction
ppp = reduced air pressure
vv = visibility
sd = sunshine duration

Next stations